Location: *
(40.7765°S, 106.5327°E)
Time: 14:52:32
(UTC+00:00)

Cosmos 1782 - Pass Details

Date: 26 May 2022
Orbit: 532 x 548 km, 82.5° (Epoch: 04 July)

Event Time Altitude Azimuth Distance (km) Brightness Sun altitude
Rises 10:04:39 0° 172° (S) 2,727 6.1 -5.4°
Reaches altitude 10° 10:07:23 10° 152° (SSE) 1,822 5.0 -5.9°
Maximum altitude 10:10:12 18° 107° (ESE) 1,371 4.2 -6.4°
Drops below altitude 10° 10:12:57 10° 63° (ENE) 1,800 5.1 -6.9°
Sets 10:15:38 0° 43° (NE) 2,680 6.1 -7.3°
